Location: Marcé
(47.5801°N, 0.3280°W)
Time: 02:34:56
(UTC+01:00)

Explorer 11/Cluster Stage 4 - Pass Details

Date: 03 December 2021
Orbit: 467 x 1255 km, 28.8° (Epoch: 26 January)

Event Time Altitude Azimuth Distance (km) Brightness Sun altitude
Rises 04:31:16 0° 228° (SW) 3,730 - -39.5°
Reaches altitude 10° 04:34:53 10° 209° (SSW) 2,920 - -38.9°
Maximum altitude 04:39:18 17° 172° (S) 2,560 - -38.2°
Exits shadow 04:40:24 17° 162° (SSE) 2,617 9.3 -38.0°
Drops below altitude 10° 04:44:03 10° 135° (SE) 3,164 10.0 -37.4°
Sets 04:48:12 0° 117° (ESE) 4,182 11.0 -36.7°
